{"data":{"norad_id":57642,"epoch":"2026-05-25T00:26:01.927968Z","epoch_age_seconds":73411,"freshness":"FRESH","line1":"1 57642U 23122L   26145.01807787  .00001246  00000+0  54755-4 0  9992","line2":"2 57642  43.0055  21.1633 0001025 269.4878  90.5856 15.27593723153883","mean_motion":15.27593723,"eccentricity":0.0001025,"inclination_deg":43.0055,"raan_deg":21.1633,"arg_perigee_deg":269.4878,"mean_anomaly_deg":90.5856,"bstar":5.4755e-5,"rev_number":15388,"period_min":94.265901876843,"perigee_km":482.30473738546,"apogee_km":483.71127211143,"semimajor_km":6861.1450047484,"source":"CELESTRAK","updated_at":"2026-05-25T13:38:18.364243Z"}}